Year,Month,Day,Hour,Minute,Value (Times are PST for temperature in C)
2014,02,20,00,00,3.20
2014,02,20,00,01,3.20
2014,02,20,00,02,3.20
2014,02,20,00,03,3.20
2014,02,20,00,04,3.20
2014,02,20,00,05,3.20
2014,02,20,00,06,3.20
2014,02,20,00,07,3.20
2014,02,20,00,08,3.20
2014,02,20,00,09,3.20
2014,02,20,00,10,3.20
2014,02,20,00,11,3.20
2014,02,20,00,12,3.20
2014,02,20,00,13,3.20
2014,02,20,00,14,3.20
2014,02,20,00,15,3.20
2014,02,20,00,16,3.20
2014,02,20,00,17,3.20
2014,02,20,00,18,3.20
2014,02,20,00,19,3.20
2014,02,20,00,20,3.20
2014,02,20,00,21,3.20
2014,02,20,00,22,3.20
2014,02,20,00,23,3.20
2014,02,20,00,24,3.20
2014,02,20,00,25,3.20
2014,02,20,00,26,3.20
2014,02,20,00,27,3.20
2014,02,20,00,28,3.20
2014,02,20,00,29,3.20
2014,02,20,00,30,3.20
2014,02,20,00,31,3.20
2014,02,20,00,32,3.20
2014,02,20,00,33,3.20
2014,02,20,00,34,3.20
2014,02,20,00,35,3.20
2014,02,20,00,36,3.20
2014,02,20,00,37,3.20
2014,02,20,00,38,3.10
2014,02,20,00,39,3.10
2014,02,20,00,40,3.10
2014,02,20,00,41,3.10
2014,02,20,00,42,3.10
2014,02,20,00,43,3.10
2014,02,20,00,44,3.10
2014,02,20,00,45,3.10
2014,02,20,00,46,3.10
2014,02,20,00,47,3.10
2014,02,20,00,48,3.10
2014,02,20,00,49,3.10
2014,02,20,00,50,3.10
2014,02,20,00,51,3.10
2014,02,20,00,52,3.10
2014,02,20,00,53,3.10
2014,02,20,00,54,3.10
2014,02,20,00,55,3.10
2014,02,20,00,56,3.10
2014,02,20,00,57,3.10
2014,02,20,00,58,3.10
2014,02,20,00,59,3.10
2014,02,20,01,00,3.10
2014,02,20,01,01,3.10
2014,02,20,01,02,3.10
2014,02,20,01,03,3.10
2014,02,20,01,04,3.00
2014,02,20,01,05,3.10
2014,02,20,01,06,3.10
2014,02,20,01,07,3.10
2014,02,20,01,08,3.10
2014,02,20,01,09,3.10
2014,02,20,01,10,3.10
2014,02,20,01,11,3.10
2014,02,20,01,12,3.10
2014,02,20,01,13,3.10
2014,02,20,01,14,3.10
2014,02,20,01,15,3.10
2014,02,20,01,16,3.10
2014,02,20,01,17,3.10
2014,02,20,01,18,3.10
2014,02,20,01,19,3.10
2014,02,20,01,20,3.10
2014,02,20,01,21,3.10
2014,02,20,01,22,3.10
2014,02,20,01,23,3.10
2014,02,20,01,24,3.10
2014,02,20,01,25,3.10
2014,02,20,01,26,3.10
2014,02,20,01,27,3.10
2014,02,20,01,28,3.10
2014,02,20,01,29,3.10
2014,02,20,01,30,3.00
2014,02,20,01,31,3.00
2014,02,20,01,32,3.00
2014,02,20,01,33,3.00
2014,02,20,01,34,2.90
2014,02,20,01,35,2.90
2014,02,20,01,36,2.90
2014,02,20,01,37,2.90
2014,02,20,01,38,2.90
2014,02,20,01,39,2.90
2014,02,20,01,40,2.90
2014,02,20,01,41,2.90
2014,02,20,01,42,2.90
2014,02,20,01,43,2.90
2014,02,20,01,44,2.90
2014,02,20,01,45,2.90
2014,02,20,01,46,3.00
2014,02,20,01,47,3.00
2014,02,20,01,48,3.10
2014,02,20,01,49,3.10
2014,02,20,01,50,3.10
2014,02,20,01,51,3.10
2014,02,20,01,52,3.00
2014,02,20,01,53,3.00
2014,02,20,01,54,3.00
2014,02,20,01,55,2.90
2014,02,20,01,56,2.90
2014,02,20,01,57,2.90
2014,02,20,01,58,2.90
2014,02,20,01,59,2.80
2014,02,20,02,00,2.80
2014,02,20,02,01,2.80
2014,02,20,02,02,2.80
2014,02,20,02,03,2.80
2014,02,20,02,04,2.80
2014,02,20,02,05,2.80
2014,02,20,02,06,2.80
2014,02,20,02,07,2.80
2014,02,20,02,08,2.90
2014,02,20,02,09,2.80
2014,02,20,02,10,2.80
2014,02,20,02,11,2.80
2014,02,20,02,12,2.80
2014,02,20,02,13,2.80
2014,02,20,02,14,2.80
2014,02,20,02,15,2.80
2014,02,20,02,16,2.80
2014,02,20,02,17,2.70
2014,02,20,02,18,2.70
2014,02,20,02,19,2.70
2014,02,20,02,20,2.70
2014,02,20,02,21,2.60
2014,02,20,02,22,2.60
2014,02,20,02,23,2.60
2014,02,20,02,24,2.60
2014,02,20,02,25,2.60
2014,02,20,02,26,2.60
2014,02,20,02,27,2.60
2014,02,20,02,28,2.60
2014,02,20,02,29,2.60
2014,02,20,02,30,2.60
2014,02,20,02,31,2.60
2014,02,20,02,32,2.60
2014,02,20,02,33,2.60
2014,02,20,02,34,2.60
2014,02,20,02,35,2.50
2014,02,20,02,36,2.50
2014,02,20,02,37,2.40
2014,02,20,02,38,2.40
2014,02,20,02,39,2.30
2014,02,20,02,40,2.30
2014,02,20,02,41,2.20
2014,02,20,02,42,2.20
2014,02,20,02,43,2.20
2014,02,20,02,44,2.20
2014,02,20,02,45,2.20
2014,02,20,02,46,2.20
2014,02,20,02,47,2.20
2014,02,20,02,48,2.20
2014,02,20,02,49,2.30
2014,02,20,02,50,2.30
2014,02,20,02,51,2.30
2014,02,20,02,52,2.30
2014,02,20,02,53,2.30
2014,02,20,02,54,2.30
2014,02,20,02,55,2.30
2014,02,20,02,56,2.30
2014,02,20,02,57,2.30
2014,02,20,02,58,2.30
2014,02,20,02,59,2.20
2014,02,20,03,00,2.20
2014,02,20,03,01,2.20
2014,02,20,03,02,2.20
2014,02,20,03,03,2.20
2014,02,20,03,04,2.20
2014,02,20,03,05,2.20
2014,02,20,03,06,2.20
2014,02,20,03,07,2.20
2014,02,20,03,08,2.20
2014,02,20,03,09,2.20
2014,02,20,03,10,2.20
2014,02,20,03,11,2.20
2014,02,20,03,12,2.20
2014,02,20,03,13,2.20
2014,02,20,03,14,2.20
2014,02,20,03,15,2.20
2014,02,20,03,16,2.20
2014,02,20,03,17,2.20
2014,02,20,03,18,2.20
2014,02,20,03,19,2.20
2014,02,20,03,20,2.20
2014,02,20,03,21,2.20
2014,02,20,03,22,2.20
2014,02,20,03,23,2.20
2014,02,20,03,24,2.10
2014,02,20,03,25,2.10
2014,02,20,03,26,2.10
2014,02,20,03,27,2.10
2014,02,20,03,28,2.10
2014,02,20,03,29,2.20
2014,02,20,03,30,2.20
2014,02,20,03,31,2.20
2014,02,20,03,32,2.30
2014,02,20,03,33,2.30
2014,02,20,03,34,2.40
2014,02,20,03,35,2.40
2014,02,20,03,36,2.50
2014,02,20,03,37,2.60
2014,02,20,03,38,2.70
2014,02,20,03,39,2.80
2014,02,20,03,40,2.90
2014,02,20,03,41,2.90
2014,02,20,03,42,2.90
2014,02,20,03,43,2.90
2014,02,20,03,44,2.90
2014,02,20,03,45,2.90
2014,02,20,03,46,3.00
2014,02,20,03,47,3.00
2014,02,20,03,48,3.10
2014,02,20,03,49,3.10
2014,02,20,03,50,3.10
2014,02,20,03,51,3.10
2014,02,20,03,52,3.10
2014,02,20,03,53,3.00
2014,02,20,03,54,3.00
2014,02,20,03,55,2.90
2014,02,20,03,56,2.80
2014,02,20,03,57,2.80
2014,02,20,03,58,2.80
2014,02,20,03,59,2.70
2014,02,20,04,00,2.70
2014,02,20,04,01,2.70
2014,02,20,04,02,2.70
2014,02,20,04,03,2.70
2014,02,20,04,04,2.70
2014,02,20,04,05,2.60
2014,02,20,04,06,2.60
2014,02,20,04,07,2.60
2014,02,20,04,08,2.60
2014,02,20,04,09,2.60
2014,02,20,04,10,2.60
2014,02,20,04,11,2.60
2014,02,20,04,12,2.70
2014,02,20,04,13,2.70
2014,02,20,04,14,2.70
2014,02,20,04,15,2.70
2014,02,20,04,16,2.70
2014,02,20,04,17,2.70
2014,02,20,04,18,2.70
2014,02,20,04,19,2.60
2014,02,20,04,20,2.60
2014,02,20,04,21,2.60
2014,02,20,04,22,2.50
2014,02,20,04,23,2.50
2014,02,20,04,24,2.40
2014,02,20,04,25,2.40
2014,02,20,04,26,2.30
2014,02,20,04,27,2.30
2014,02,20,04,28,2.30
2014,02,20,04,29,2.20
2014,02,20,04,30,2.20
2014,02,20,04,31,2.10
2014,02,20,04,32,2.10
2014,02,20,04,33,2.00
2014,02,20,04,34,2.00
2014,02,20,04,35,1.90
2014,02,20,04,36,1.90
2014,02,20,04,37,1.90
2014,02,20,04,38,1.90
2014,02,20,04,39,1.80
2014,02,20,04,40,1.80
2014,02,20,04,41,1.80
2014,02,20,04,42,1.80
2014,02,20,04,43,1.80
2014,02,20,04,44,1.70
2014,02,20,04,45,1.70
2014,02,20,04,46,1.70
2014,02,20,04,47,1.60
2014,02,20,04,48,1.60
2014,02,20,04,49,1.60
2014,02,20,04,50,1.60
2014,02,20,04,51,1.60
2014,02,20,04,52,1.70
2014,02,20,04,53,1.60
2014,02,20,04,54,1.60
2014,02,20,04,55,1.60
2014,02,20,04,56,1.60
2014,02,20,04,57,1.60
2014,02,20,04,58,1.60
2014,02,20,04,59,1.60
2014,02,20,05,00,1.60
2014,02,20,05,01,1.50
2014,02,20,05,02,1.50
2014,02,20,05,03,1.50
2014,02,20,05,04,1.50
2014,02,20,05,05,1.50
2014,02,20,05,06,1.60
2014,02,20,05,07,1.60
2014,02,20,05,08,1.70
2014,02,20,05,09,1.70
2014,02,20,05,10,1.70
2014,02,20,05,11,1.70
2014,02,20,05,12,1.70
2014,02,20,05,13,1.70
2014,02,20,05,14,1.70
2014,02,20,05,15,1.70
2014,02,20,05,16,1.70
2014,02,20,05,17,1.80
2014,02,20,05,18,1.80
2014,02,20,05,19,1.80
2014,02,20,05,20,1.80
2014,02,20,05,21,1.80
2014,02,20,05,22,1.80
2014,02,20,05,23,1.80
2014,02,20,05,24,1.90
2014,02,20,05,25,1.90
2014,02,20,05,26,1.90
2014,02,20,05,27,1.90
2014,02,20,05,28,1.80
2014,02,20,05,29,1.80
2014,02,20,05,30,1.80
2014,02,20,05,31,1.70
2014,02,20,05,32,1.70
2014,02,20,05,33,1.70
2014,02,20,05,34,1.70
2014,02,20,05,35,1.60
2014,02,20,05,36,1.60
2014,02,20,05,37,1.60
2014,02,20,05,38,1.60
2014,02,20,05,39,1.50
2014,02,20,05,40,1.40
2014,02,20,05,41,1.40
2014,02,20,05,42,1.40
2014,02,20,05,43,1.40
2014,02,20,05,44,1.40
2014,02,20,05,45,1.40
2014,02,20,05,46,1.30
2014,02,20,05,47,1.30
2014,02,20,05,48,1.30
2014,02,20,05,49,1.30
2014,02,20,05,50,1.30
2014,02,20,05,51,1.20
2014,02,20,05,52,1.20
2014,02,20,05,53,1.20
2014,02,20,05,54,1.20
2014,02,20,05,55,1.20
2014,02,20,05,56,1.10
2014,02,20,05,57,1.10
2014,02,20,05,58,1.10
2014,02,20,05,59,1.10
2014,02,20,06,00,1.10
2014,02,20,06,01,1.10
2014,02,20,06,02,1.10
2014,02,20,06,03,1.10
2014,02,20,06,04,1.10
2014,02,20,06,05,1.00
2014,02,20,06,06,1.00
2014,02,20,06,07,1.00
2014,02,20,06,08,0.90
2014,02,20,06,09,0.90
2014,02,20,06,10,0.80
2014,02,20,06,11,0.80
2014,02,20,06,12,0.80
2014,02,20,06,13,0.70
2014,02,20,06,14,0.70
2014,02,20,06,15,0.70
2014,02,20,06,16,0.80
2014,02,20,06,17,0.80
2014,02,20,06,18,0.90
2014,02,20,06,19,0.90
2014,02,20,06,20,1.00
2014,02,20,06,21,1.20
2014,02,20,06,22,1.50
2014,02,20,06,23,2.20
2014,02,20,06,24,2.60
2014,02,20,06,25,2.90
2014,02,20,06,26,3.10
2014,02,20,06,27,3.40
2014,02,20,06,28,3.70
2014,02,20,06,29,3.90
2014,02,20,06,30,4.10
2014,02,20,06,31,4.20
2014,02,20,06,32,4.30
2014,02,20,06,33,4.50
2014,02,20,06,34,4.80
2014,02,20,06,35,5.10
2014,02,20,06,36,5.40
2014,02,20,06,37,5.70
2014,02,20,06,38,6.00
2014,02,20,06,39,6.20
2014,02,20,06,40,6.30
2014,02,20,06,41,6.40
2014,02,20,06,42,6.40
2014,02,20,06,43,6.30
2014,02,20,06,44,6.10
2014,02,20,06,45,6.00
2014,02,20,06,46,5.90
2014,02,20,06,47,5.80
2014,02,20,06,48,5.70
2014,02,20,06,49,5.70
2014,02,20,06,50,5.70
2014,02,20,06,51,5.70
2014,02,20,06,52,5.70
2014,02,20,06,53,5.60
2014,02,20,06,54,5.50
2014,02,20,06,55,5.40
2014,02,20,06,56,5.40
2014,02,20,06,57,5.40
2014,02,20,06,58,5.30
2014,02,20,06,59,5.30
2014,02,20,07,00,5.30
2014,02,20,07,01,5.30
2014,02,20,07,02,5.30
2014,02,20,07,03,5.30
2014,02,20,07,04,5.30
2014,02,20,07,05,5.30
2014,02,20,07,06,5.30
2014,02,20,07,07,5.20
2014,02,20,07,08,5.20
2014,02,20,07,09,5.20
2014,02,20,07,10,5.10
2014,02,20,07,11,5.10
2014,02,20,07,12,5.10
2014,02,20,07,13,5.00
2014,02,20,07,14,5.00
2014,02,20,07,15,4.90
2014,02,20,07,16,4.90
2014,02,20,07,17,4.90
2014,02,20,07,18,4.90
2014,02,20,07,19,4.90
2014,02,20,07,20,4.90
2014,02,20,07,21,4.90
2014,02,20,07,22,4.90
2014,02,20,07,23,4.90
2014,02,20,07,24,4.90
2014,02,20,07,25,5.00
2014,02,20,07,26,5.00
2014,02,20,07,27,5.00
2014,02,20,07,28,5.00
2014,02,20,07,29,5.10
2014,02,20,07,30,5.10
2014,02,20,07,31,5.10
2014,02,20,07,32,5.20
2014,02,20,07,33,5.30
2014,02,20,07,34,5.30
2014,02,20,07,35,5.30
2014,02,20,07,36,5.30
2014,02,20,07,37,5.30
2014,02,20,07,38,5.30
2014,02,20,07,39,5.30
2014,02,20,07,40,5.30
2014,02,20,07,41,5.30
2014,02,20,07,42,5.30
2014,02,20,07,43,5.30
2014,02,20,07,44,5.40
2014,02,20,07,45,5.40
2014,02,20,07,46,5.40
2014,02,20,07,47,5.40
2014,02,20,07,48,5.40
2014,02,20,07,49,5.40
2014,02,20,07,50,5.40
2014,02,20,07,51,5.40
2014,02,20,07,52,5.40
2014,02,20,07,53,5.40
2014,02,20,07,54,5.40
2014,02,20,07,55,5.40
2014,02,20,07,56,5.40
2014,02,20,07,57,5.30
2014,02,20,07,58,5.30
2014,02,20,07,59,5.30
2014,02,20,08,00,5.30
2014,02,20,08,01,5.30
2014,02,20,08,02,5.20
2014,02,20,08,03,5.20
2014,02,20,08,04,5.20
2014,02,20,08,05,5.10
2014,02,20,08,06,5.10
2014,02,20,08,07,5.10
2014,02,20,08,08,5.10
2014,02,20,08,09,5.10
2014,02,20,08,10,5.10
2014,02,20,08,11,5.10
2014,02,20,08,12,5.10
2014,02,20,08,13,5.10
2014,02,20,08,14,5.10
2014,02,20,08,15,5.10
2014,02,20,08,16,5.20
2014,02,20,08,17,5.20
2014,02,20,08,18,5.30
2014,02,20,08,19,5.30
2014,02,20,08,20,5.30
2014,02,20,08,21,5.30
2014,02,20,08,22,5.30
2014,02,20,08,23,5.30
2014,02,20,08,24,5.40
2014,02,20,08,25,5.40
2014,02,20,08,26,5.40
2014,02,20,08,27,5.40
2014,02,20,08,28,5.40
2014,02,20,08,29,5.40
2014,02,20,08,30,5.40
2014,02,20,08,31,5.30
2014,02,20,08,32,5.40
2014,02,20,08,33,5.30
2014,02,20,08,34,5.30
2014,02,20,08,35,5.30
2014,02,20,08,36,5.30
2014,02,20,08,37,5.30
2014,02,20,08,38,5.30
2014,02,20,08,39,5.30
2014,02,20,08,40,5.30
2014,02,20,08,41,5.30
2014,02,20,08,42,5.30
2014,02,20,08,43,5.40
2014,02,20,08,44,5.40
2014,02,20,08,45,5.50
2014,02,20,08,46,5.50
2014,02,20,08,47,5.50
2014,02,20,08,48,5.60
2014,02,20,08,49,5.70
2014,02,20,08,50,5.90
2014,02,20,08,51,6.00
2014,02,20,08,52,6.20
2014,02,20,08,53,6.30
2014,02,20,08,54,6.30
2014,02,20,08,55,6.40
2014,02,20,08,56,6.50
2014,02,20,08,57,6.50
2014,02,20,08,58,6.50
2014,02,20,08,59,6.60
2014,02,20,09,00,6.60
2014,02,20,09,01,6.70
2014,02,20,09,02,6.70
2014,02,20,09,03,6.80
2014,02,20,09,04,6.80
2014,02,20,09,05,6.80
2014,02,20,09,06,6.80
2014,02,20,09,07,6.80
2014,02,20,09,08,6.90
2014,02,20,09,09,6.90
2014,02,20,09,10,6.90
2014,02,20,09,11,6.80
2014,02,20,09,12,6.80
2014,02,20,09,13,6.80
2014,02,20,09,14,6.70
2014,02,20,09,15,6.70
2014,02,20,09,16,6.70
2014,02,20,09,17,6.70
2014,02,20,09,18,6.80
2014,02,20,09,19,6.80
2014,02,20,09,20,6.80
2014,02,20,09,21,6.80
2014,02,20,09,22,6.80
2014,02,20,09,23,6.80
2014,02,20,09,24,6.90
2014,02,20,09,25,6.90
2014,02,20,09,26,6.90
2014,02,20,09,27,7.00
2014,02,20,09,28,7.00
2014,02,20,09,29,7.10
2014,02,20,09,30,7.10
2014,02,20,09,31,7.10
2014,02,20,09,32,7.20
2014,02,20,09,33,7.20
2014,02,20,09,34,7.30
2014,02,20,09,35,7.30
2014,02,20,09,36,7.40
2014,02,20,09,37,7.40
2014,02,20,09,38,7.40
2014,02,20,09,39,7.50
2014,02,20,09,40,7.60
2014,02,20,09,41,7.60
2014,02,20,09,42,7.50
2014,02,20,09,43,7.50
2014,02,20,09,44,7.40
2014,02,20,09,45,7.40
2014,02,20,09,46,7.40
2014,02,20,09,47,7.40
2014,02,20,09,48,7.30
2014,02,20,09,49,7.30
2014,02,20,09,50,7.20
2014,02,20,09,51,7.20
2014,02,20,09,52,7.20
2014,02,20,09,53,7.20
2014,02,20,09,54,7.10
2014,02,20,09,55,7.10
2014,02,20,09,56,7.10
2014,02,20,09,57,7.10
2014,02,20,09,58,7.10
2014,02,20,09,59,7.20
2014,02,20,10,00,7.20
2014,02,20,10,01,7.20
2014,02,20,10,02,7.20
2014,02,20,10,03,7.20
2014,02,20,10,04,7.10
2014,02,20,10,05,7.10
2014,02,20,10,06,7.10
2014,02,20,10,07,7.20
2014,02,20,10,08,7.20
2014,02,20,10,09,7.20
2014,02,20,10,10,7.20
2014,02,20,10,11,7.20
2014,02,20,10,12,7.20
2014,02,20,10,13,7.30
2014,02,20,10,14,7.30
2014,02,20,10,15,7.30
2014,02,20,10,16,7.30
2014,02,20,10,17,7.40
2014,02,20,10,18,7.40
2014,02,20,10,19,7.40
2014,02,20,10,20,7.40
2014,02,20,10,21,7.40
2014,02,20,10,22,7.50
2014,02,20,10,23,7.50
2014,02,20,10,24,7.60
2014,02,20,10,25,7.60
2014,02,20,10,26,7.70
2014,02,20,10,27,7.70
2014,02,20,10,28,7.70
2014,02,20,10,29,7.60
2014,02,20,10,30,7.50
2014,02,20,10,31,7.50
2014,02,20,10,32,7.40
2014,02,20,10,33,7.40
2014,02,20,10,34,7.40
2014,02,20,10,35,7.40
2014,02,20,10,36,7.30
2014,02,20,10,37,7.30
2014,02,20,10,38,7.30
2014,02,20,10,39,7.30
2014,02,20,10,40,7.30
2014,02,20,10,41,7.30
2014,02,20,10,42,7.30
2014,02,20,10,43,7.30
2014,02,20,10,44,7.30
2014,02,20,10,45,7.30
2014,02,20,10,46,7.30
2014,02,20,10,47,7.30
2014,02,20,10,48,7.20
2014,02,20,10,49,7.20
2014,02,20,10,50,7.20
2014,02,20,10,51,7.20
2014,02,20,10,52,7.20
2014,02,20,10,53,7.10
2014,02,20,10,54,7.10
2014,02,20,10,55,7.10
2014,02,20,10,56,7.10
2014,02,20,10,57,7.10
2014,02,20,10,58,7.10
2014,02,20,10,59,7.10
2014,02,20,11,00,7.20
2014,02,20,11,01,7.30
2014,02,20,11,02,7.40
2014,02,20,11,03,7.50
2014,02,20,11,04,7.60
2014,02,20,11,05,7.70
2014,02,20,11,06,7.80
2014,02,20,11,07,7.80
2014,02,20,11,08,7.90
2014,02,20,11,09,7.90
2014,02,20,11,10,8.00
2014,02,20,11,11,8.00
2014,02,20,11,12,8.10
2014,02,20,11,13,8.20
2014,02,20,11,14,8.20
2014,02,20,11,15,8.20
2014,02,20,11,16,8.20
2014,02,20,11,17,8.20
2014,02,20,11,18,8.20
2014,02,20,11,19,8.20
2014,02,20,11,20,8.20
2014,02,20,11,21,8.20
2014,02,20,11,22,8.20
2014,02,20,11,23,8.20
2014,02,20,11,24,8.20
2014,02,20,11,25,8.20
2014,02,20,11,26,8.20
2014,02,20,11,27,8.30
2014,02,20,11,28,8.30
2014,02,20,11,29,8.30
2014,02,20,11,30,8.30
2014,02,20,11,31,8.30
2014,02,20,11,32,8.30
2014,02,20,11,33,8.40
2014,02,20,11,34,8.40
2014,02,20,11,35,8.40
2014,02,20,11,36,8.40
2014,02,20,11,37,8.40
2014,02,20,11,38,8.40
2014,02,20,11,39,8.40
2014,02,20,11,40,8.40
2014,02,20,11,41,8.40
2014,02,20,11,42,8.40
2014,02,20,11,43,8.50
2014,02,20,11,44,8.50
2014,02,20,11,45,8.60
2014,02,20,11,46,8.60
2014,02,20,11,47,8.60
2014,02,20,11,48,8.60
2014,02,20,11,49,8.70
2014,02,20,11,50,8.70
2014,02,20,11,51,8.70
2014,02,20,11,52,8.70
2014,02,20,11,53,8.70
2014,02,20,11,54,8.70
2014,02,20,11,55,8.70
2014,02,20,11,56,8.70
2014,02,20,11,57,8.70
2014,02,20,11,58,8.60
2014,02,20,11,59,8.60
2014,02,20,12,00,8.50
2014,02,20,12,01,8.40
2014,02,20,12,02,8.30
2014,02,20,12,03,8.30
2014,02,20,12,04,8.20
2014,02,20,12,05,8.20
2014,02,20,12,06,8.20
2014,02,20,12,07,8.30
2014,02,20,12,08,8.30
2014,02,20,12,09,8.30
2014,02,20,12,10,8.30
2014,02,20,12,11,8.20
2014,02,20,12,12,8.10
2014,02,20,12,13,8.10
2014,02,20,12,14,8.10
2014,02,20,12,15,8.10
2014,02,20,12,16,8.00
2014,02,20,12,17,8.00
2014,02,20,12,18,7.90
2014,02,20,12,19,7.90
2014,02,20,12,20,7.90
2014,02,20,12,21,7.90
2014,02,20,12,22,7.90
2014,02,20,12,23,7.90
2014,02,20,12,24,8.00
2014,02,20,12,25,8.00
2014,02,20,12,26,8.10
2014,02,20,12,27,8.10
2014,02,20,12,28,8.20
2014,02,20,12,29,8.40
2014,02,20,12,30,8.50
2014,02,20,12,31,8.60
2014,02,20,12,32,8.70
2014,02,20,12,33,8.80
2014,02,20,12,34,8.90
2014,02,20,12,35,9.00
2014,02,20,12,36,9.00
2014,02,20,12,37,9.10
2014,02,20,12,38,9.10
2014,02,20,12,39,9.10
2014,02,20,12,40,9.20
2014,02,20,12,41,9.30
2014,02,20,12,42,9.30
2014,02,20,12,43,9.30
2014,02,20,12,44,9.30
2014,02,20,12,45,9.30
2014,02,20,12,46,9.20
2014,02,20,12,47,9.20
2014,02,20,12,48,9.30
2014,02,20,12,49,9.30
2014,02,20,12,50,9.30
2014,02,20,12,51,9.40
2014,02,20,12,52,9.40
2014,02,20,12,53,9.40
2014,02,20,12,54,9.40
2014,02,20,12,55,9.40
2014,02,20,12,56,9.40
2014,02,20,12,57,9.40
2014,02,20,12,58,9.40
2014,02,20,12,59,9.40
2014,02,20,13,00,9.40
2014,02,20,13,01,9.50
2014,02,20,13,02,9.50
2014,02,20,13,03,9.50
2014,02,20,13,04,9.40
2014,02,20,13,05,9.30
2014,02,20,13,06,9.30
2014,02,20,13,07,9.40
2014,02,20,13,08,9.50
2014,02,20,13,09,9.50
2014,02,20,13,10,9.60
2014,02,20,13,11,9.60
2014,02,20,13,12,9.70
2014,02,20,13,13,9.70
2014,02,20,13,14,9.70
2014,02,20,13,15,9.60
2014,02,20,13,16,9.50
2014,02,20,13,17,9.50
2014,02,20,13,18,9.40
2014,02,20,13,19,9.40
2014,02,20,13,20,9.40
2014,02,20,13,21,9.40
2014,02,20,13,22,9.40
2014,02,20,13,23,9.40
2014,02,20,13,24,9.40
2014,02,20,13,25,9.30
2014,02,20,13,26,9.30
2014,02,20,13,27,9.30
2014,02,20,13,28,9.40
2014,02,20,13,29,9.50
2014,02,20,13,30,9.60
2014,02,20,13,31,9.60
2014,02,20,13,32,9.70
2014,02,20,13,33,9.70
2014,02,20,13,34,9.60
2014,02,20,13,35,9.60
2014,02,20,13,36,9.60
2014,02,20,13,37,9.60
2014,02,20,13,38,9.50
2014,02,20,13,39,9.50
2014,02,20,13,40,9.40
2014,02,20,13,41,9.50
2014,02,20,13,42,9.60
2014,02,20,13,43,9.70
2014,02,20,13,44,9.80
2014,02,20,13,45,9.90
2014,02,20,13,46,9.90
2014,02,20,13,47,9.90
2014,02,20,13,48,10.00
2014,02,20,13,49,9.80
2014,02,20,13,50,9.70
2014,02,20,13,51,9.70
2014,02,20,13,52,9.70
2014,02,20,13,53,9.70
2014,02,20,13,54,9.80
2014,02,20,13,55,9.80
2014,02,20,13,56,9.90
2014,02,20,13,57,10.00
2014,02,20,13,58,10.00
2014,02,20,13,59,10.00
2014,02,20,14,00,9.90
2014,02,20,14,01,9.80
2014,02,20,14,02,9.80
2014,02,20,14,03,9.70
2014,02,20,14,04,9.60
2014,02,20,14,05,9.50
2014,02,20,14,06,9.40
2014,02,20,14,07,9.30
2014,02,20,14,08,9.30
2014,02,20,14,09,9.30
2014,02,20,14,10,9.30
2014,02,20,14,11,9.40
2014,02,20,14,12,9.40
2014,02,20,14,13,9.30
2014,02,20,14,14,9.40
2014,02,20,14,15,9.40
2014,02,20,14,16,9.40
2014,02,20,14,17,9.40
2014,02,20,14,18,9.30
2014,02,20,14,19,9.20
2014,02,20,14,20,9.10
2014,02,20,14,21,9.10
2014,02,20,14,22,9.10
2014,02,20,14,23,9.20
2014,02,20,14,24,9.20
2014,02,20,14,25,9.30
2014,02,20,14,26,9.30
2014,02,20,14,27,9.30
2014,02,20,14,28,9.20
2014,02,20,14,29,9.20
2014,02,20,14,30,9.20
2014,02,20,14,31,9.20
2014,02,20,14,32,9.30
2014,02,20,14,33,9.20
2014,02,20,14,34,9.00
2014,02,20,14,35,8.90
2014,02,20,14,36,8.80
2014,02,20,14,37,8.70
2014,02,20,14,38,8.60
2014,02,20,14,39,8.60
2014,02,20,14,40,8.60
2014,02,20,14,41,8.60
2014,02,20,14,42,8.70
2014,02,20,14,43,8.70
2014,02,20,14,44,8.80
2014,02,20,14,45,8.80
2014,02,20,14,46,8.80
2014,02,20,14,47,8.80
2014,02,20,14,48,8.80
2014,02,20,14,49,8.80
2014,02,20,14,50,8.90
2014,02,20,14,51,8.90
2014,02,20,14,52,8.90
2014,02,20,14,53,8.80
2014,02,20,14,54,8.80
2014,02,20,14,55,8.80
2014,02,20,14,56,8.90
2014,02,20,14,57,8.90
2014,02,20,14,58,9.00
2014,02,20,14,59,9.00
2014,02,20,15,00,8.90
2014,02,20,15,01,8.90
2014,02,20,15,02,8.90
2014,02,20,15,03,9.00
2014,02,20,15,04,9.00
2014,02,20,15,05,9.00
2014,02,20,15,06,9.10
2014,02,20,15,07,9.10
2014,02,20,15,08,9.00
2014,02,20,15,09,9.00
2014,02,20,15,10,8.90
2014,02,20,15,11,8.90
2014,02,20,15,12,8.80
2014,02,20,15,13,8.80
2014,02,20,15,14,8.80
2014,02,20,15,15,8.90
2014,02,20,15,16,8.90
2014,02,20,15,17,8.90
2014,02,20,15,18,8.90
2014,02,20,15,19,8.90
2014,02,20,15,20,8.90
2014,02,20,15,21,8.90
2014,02,20,15,22,8.80
2014,02,20,15,23,8.80
2014,02,20,15,24,8.80
2014,02,20,15,25,8.80
2014,02,20,15,26,8.80
2014,02,20,15,27,8.80
2014,02,20,15,28,8.80
2014,02,20,15,29,8.70
2014,02,20,15,30,8.70
2014,02,20,15,31,8.70
2014,02,20,15,32,8.70
2014,02,20,15,33,8.70
2014,02,20,15,34,8.80
2014,02,20,15,35,8.80
2014,02,20,15,36,8.80
2014,02,20,15,37,8.80
2014,02,20,15,38,8.80
2014,02,20,15,39,8.80
2014,02,20,15,40,8.80
2014,02,20,15,41,8.90
2014,02,20,15,42,8.90
2014,02,20,15,43,8.80
2014,02,20,15,44,8.80
2014,02,20,15,45,8.80
2014,02,20,15,46,8.70
2014,02,20,15,47,8.70
2014,02,20,15,48,8.60
2014,02,20,15,49,8.60
2014,02,20,15,50,8.60
2014,02,20,15,51,8.70
2014,02,20,15,52,8.70
2014,02,20,15,53,8.70
2014,02,20,15,54,8.70
2014,02,20,15,55,8.60
2014,02,20,15,56,8.60
2014,02,20,15,57,8.60
2014,02,20,15,58,8.70
2014,02,20,15,59,8.60
2014,02,20,16,00,8.60
2014,02,20,16,01,8.50
2014,02,20,16,02,8.50
2014,02,20,16,03,8.40
2014,02,20,16,04,8.40
2014,02,20,16,05,8.40
2014,02,20,16,06,8.40
2014,02,20,16,07,8.40
2014,02,20,16,08,8.40
2014,02,20,16,09,8.40
2014,02,20,16,10,8.30
2014,02,20,16,11,8.30
2014,02,20,16,12,8.30
2014,02,20,16,13,8.30
2014,02,20,16,14,8.30
2014,02,20,16,15,8.30
2014,02,20,16,16,8.30
2014,02,20,16,17,8.30
2014,02,20,16,18,8.30
2014,02,20,16,19,8.30
2014,02,20,16,20,8.20
2014,02,20,16,21,8.20
2014,02,20,16,22,8.20
2014,02,20,16,23,8.10
2014,02,20,16,24,8.10
2014,02,20,16,25,8.00
2014,02,20,16,26,8.00
2014,02,20,16,27,7.90
2014,02,20,16,28,7.90
2014,02,20,16,29,7.80
2014,02,20,16,30,7.80
2014,02,20,16,31,7.80
2014,02,20,16,32,7.70
2014,02,20,16,33,7.70
2014,02,20,16,34,7.70
2014,02,20,16,35,7.70
2014,02,20,16,36,7.70
2014,02,20,16,37,7.70
2014,02,20,16,38,7.70
2014,02,20,16,39,7.70
2014,02,20,16,40,7.70
2014,02,20,16,41,7.70
2014,02,20,16,42,7.70
2014,02,20,16,43,7.70
2014,02,20,16,44,7.80
2014,02,20,16,45,7.80
2014,02,20,16,46,7.80
2014,02,20,16,47,7.80
2014,02,20,16,48,7.80
2014,02,20,16,49,7.80
2014,02,20,16,50,7.80
2014,02,20,16,51,7.80
2014,02,20,16,52,7.80
2014,02,20,16,53,7.80
2014,02,20,16,54,7.80
2014,02,20,16,55,7.80
2014,02,20,16,56,7.80
2014,02,20,16,57,7.80
2014,02,20,16,58,7.80
2014,02,20,16,59,7.80
2014,02,20,17,00,7.70
2014,02,20,17,01,7.70
2014,02,20,17,02,7.70
2014,02,20,17,03,7.70
2014,02,20,17,04,7.70
2014,02,20,17,05,7.60
2014,02,20,17,06,7.70
2014,02,20,17,07,7.60
2014,02,20,17,08,7.60
2014,02,20,17,09,7.60
2014,02,20,17,10,7.60
2014,02,20,17,11,7.60
2014,02,20,17,12,7.50
2014,02,20,17,13,7.50
2014,02,20,17,14,7.50
2014,02,20,17,15,7.40
2014,02,20,17,16,7.40
2014,02,20,17,17,7.40
2014,02,20,17,18,7.30
2014,02,20,17,19,7.30
2014,02,20,17,20,7.30
2014,02,20,17,21,7.20
2014,02,20,17,22,7.20
2014,02,20,17,23,7.20
2014,02,20,17,24,7.20
2014,02,20,17,25,7.10
2014,02,20,17,26,7.10
2014,02,20,17,27,7.10
2014,02,20,17,28,7.10
2014,02,20,17,29,7.10
2014,02,20,17,30,7.10
2014,02,20,17,31,7.10
2014,02,20,17,32,7.10
2014,02,20,17,33,7.00
2014,02,20,17,34,7.00
2014,02,20,17,35,7.00
2014,02,20,17,36,7.00
2014,02,20,17,37,7.00
2014,02,20,17,38,7.00
2014,02,20,17,39,7.00
2014,02,20,17,40,7.00
2014,02,20,17,41,7.00
2014,02,20,17,42,7.00
2014,02,20,17,43,7.00
2014,02,20,17,44,6.90
2014,02,20,17,45,7.00
2014,02,20,17,46,6.90
2014,02,20,17,47,6.90
2014,02,20,17,48,6.90
2014,02,20,17,49,6.90
2014,02,20,17,50,6.90
2014,02,20,17,51,7.00
2014,02,20,17,52,7.00
2014,02,20,17,53,7.00
2014,02,20,17,54,7.10
2014,02,20,17,55,7.10
2014,02,20,17,56,7.10
2014,02,20,17,57,7.10
2014,02,20,17,58,7.10
2014,02,20,17,59,7.10
2014,02,20,18,00,7.10
2014,02,20,18,01,7.20
2014,02,20,18,02,7.20
2014,02,20,18,03,7.20
2014,02,20,18,04,7.20
2014,02,20,18,05,7.20
2014,02,20,18,06,7.20